Time,TemperatureF,DewpointF,PressureIn,WindDirection,WindDirectionDegrees,WindSpeedMPH,WindSpeedGustMPH,Humidity,HourlyPrecipIn,Conditions,Clouds,dailyrainin,SoftwareType,DateUTC
2013-05-31 00:32:00,51.0,51.0,-100.00,NNE,20,8.0,-999.0,100,-99.99,,,-99.99,,2013-05-31 06:32:00,
2013-05-31 00:41:00,51.0,51.0,-100.00,NNE,20,8.0,-999.0,100,-99.99,,,-99.99,,2013-05-31 06:41:00,
2013-05-31 00:51:00,51.0,51.0,-100.00,NNE,20,8.0,-999.0,100,-99.99,,,-99.99,,2013-05-31 06:51:00,
2013-05-31 02:32:00,-5.0,-5.0,-100.00,North,360,8.0,20.0,100,-99.99,,,-99.99,,2013-05-31 08:32:00,
2013-05-31 02:42:00,-5.0,-5.0,-100.00,North,360,8.0,20.0,100,-99.99,,,-99.99,,2013-05-31 08:42:00,
2013-05-31 02:51:00,-5.0,-5.0,-100.00,North,360,8.0,20.0,100,-99.99,,,-99.99,,2013-05-31 08:51:00,
2013-05-31 03:32:00,-2.0,-5.0,-100.00,North,350,12.0,22.0,86,-99.99,,,-99.99,,2013-05-31 09:32:00,
2013-05-31 03:43:00,-2.0,-5.0,-100.00,North,350,12.0,22.0,86,-99.99,,,-99.99,,2013-05-31 09:43:00,
2013-05-31 03:53:00,-2.0,-5.0,-100.00,North,350,12.0,22.0,86,-99.99,,,-99.99,,2013-05-31 09:53:00,
2013-05-31 04:33:00,2.0,2.0,-100.00,North,10,9.0,20.0,100,-99.99,,,-99.99,,2013-05-31 10:33:00,
2013-05-31 04:42:00,2.0,2.0,-100.00,North,10,9.0,20.0,100,-99.99,,,-99.99,,2013-05-31 10:42:00,
2013-05-31 04:52:00,2.0,2.0,-100.00,North,10,9.0,20.0,100,-99.99,,,-99.99,,2013-05-31 10:52:00,
2013-05-31 05:32:00,4.0,4.0,-100.00,North,350,12.0,20.0,100,-99.99,,,-99.99,,2013-05-31 11:32:00,
2013-05-31 05:42:00,4.0,4.0,-100.00,North,350,12.0,20.0,100,-99.99,,,-99.99,,2013-05-31 11:42:00,
2013-05-31 05:52:00,4.0,4.0,-100.00,North,350,12.0,20.0,100,-99.99,,,-99.99,,2013-05-31 11:52:00,
2013-05-31 06:31:00,7.0,7.0,-100.00,North,350,10.0,18.0,100,-99.99,,,-99.99,,2013-05-31 12:31:00,
2013-05-31 06:41:00,7.0,7.0,-100.00,North,350,10.0,18.0,100,-99.99,,,-99.99,,2013-05-31 12:41:00,
2013-05-31 06:52:00,7.0,7.0,-100.00,North,350,10.0,18.0,100,-99.99,,,-99.99,,2013-05-31 12:52:00,
2013-05-31 07:32:00,20.0,20.0,-100.00,North,350,10.0,-999.0,100,-99.99,,,-99.99,,2013-05-31 13:32:00,
2013-05-31 07:42:00,20.0,20.0,-100.00,North,350,10.0,-999.0,100,-99.99,,,-99.99,,2013-05-31 13:42:00,
2013-05-31 07:52:00,20.0,20.0,-100.00,North,350,10.0,-999.0,100,-99.99,,,-99.99,,2013-05-31 13:52:00,
2013-05-31 10:33:00,26.0,26.0,-100.00,North,360,9.0,-999.0,100,-99.99,,,-99.99,,2013-05-31 16:33:00,
2013-05-31 10:42:00,26.0,26.0,-100.00,North,360,9.0,-999.0,100,-99.99,,,-99.99,,2013-05-31 16:42:00,
2013-05-31 10:52:00,26.0,26.0,-100.00,North,360,9.0,-999.0,100,-99.99,,,-99.99,,2013-05-31 16:52:00,
2013-05-31 11:32:00,28.0,28.0,-100.00,North,360,12.0,-999.0,100,-99.99,,,-99.99,,2013-05-31 17:32:00,
2013-05-31 11:42:00,28.0,28.0,-100.00,North,360,12.0,-999.0,100,-99.99,,,-99.99,,2013-05-31 17:42:00,
2013-05-31 11:52:00,28.0,28.0,-100.00,North,360,12.0,-999.0,100,-99.99,,,-99.99,,2013-05-31 17:52:00,
2013-05-31 12:32:00,26.0,26.0,-100.00,North,360,12.0,20.0,100,-99.99,,,-99.99,,2013-05-31 18:32:00,
2013-05-31 12:42:00,26.0,26.0,-100.00,North,360,12.0,20.0,100,-99.99,,,-99.99,,2013-05-31 18:42:00,
2013-05-31 12:52:00,26.0,26.0,-100.00,North,360,12.0,20.0,100,-99.99,,,-99.99,,2013-05-31 18:52:00,
2013-05-31 13:32:00,29.0,28.0,-100.00,North,350,9.0,-999.0,96,-99.99,,,-99.99,,2013-05-31 19:32:00,
2013-05-31 13:42:00,29.0,28.0,-100.00,North,350,9.0,-999.0,96,-99.99,,,-99.99,,2013-05-31 19:42:00,
2013-05-31 13:52:00,29.0,28.0,-100.00,North,350,9.0,-999.0,96,-99.99,,,-99.99,,2013-05-31 19:52:00,
2013-05-31 14:32:00,24.0,23.0,-100.00,North,350,9.0,17.0,95,-99.99,,,-99.99,,2013-05-31 20:32:00,
2013-05-31 14:42:00,24.0,23.0,-100.00,North,350,9.0,17.0,95,-99.99,,,-99.99,,2013-05-31 20:42:00,
2013-05-31 14:52:00,24.0,23.0,-100.00,North,350,9.0,17.0,95,-99.99,,,-99.99,,2013-05-31 20:52:00,
2013-05-31 15:32:00,23.0,22.0,-100.00,NW,320,9.0,-999.0,95,-99.99,,,-99.99,,2013-05-31 21:32:00,
2013-05-31 15:42:00,23.0,22.0,-100.00,NW,320,9.0,-999.0,95,-99.99,,,-99.99,,2013-05-31 21:42:00,
2013-05-31 15:53:00,23.0,22.0,-100.00,NW,320,9.0,-999.0,95,-99.99,,,-99.99,,2013-05-31 21:53:00,
2013-05-31 16:33:00,25.0,22.0,-100.00,NW,320,8.0,18.0,87,-99.99,,,-99.99,,2013-05-31 22:33:00,
2013-05-31 16:42:00,25.0,22.0,-100.00,NW,320,8.0,18.0,87,-99.99,,,-99.99,,2013-05-31 22:42:00,
2013-05-31 16:52:00,25.0,22.0,-100.00,NW,320,8.0,18.0,87,-99.99,,,-99.99,,2013-05-31 22:52:00,
2013-05-31 17:32:00,28.0,24.0,-100.00,North,10,12.0,20.0,84,-99.99,,,-99.99,,2013-05-31 23:32:00,
2013-05-31 17:42:00,28.0,24.0,-100.00,North,10,12.0,20.0,84,-99.99,,,-99.99,,2013-05-31 23:42:00,
2013-05-31 17:52:00,28.0,24.0,-100.00,North,10,12.0,20.0,84,-99.99,,,-99.99,,2013-05-31 23:52:00,
2013-05-31 18:22:00,27.0,27.0,-100.00,North,360,12.0,21.0,100,-99.99,,,-99.99,,2013-06-01 00:22:00,
2013-05-31 18:32:00,27.0,27.0,-100.00,North,360,12.0,21.0,100,-99.99,,,-99.99,,2013-06-01 00:32:00,
2013-05-31 18:42:00,27.0,27.0,-100.00,North,360,12.0,21.0,100,-99.99,,,-99.99,,2013-06-01 00:42:00,
2013-05-31 18:52:00,27.0,27.0,-100.00,North,360,12.0,21.0,100,-99.99,,,-99.99,,2013-06-01 00:52:00,
2013-05-31 19:32:00,28.0,28.0,-100.00,North,10,13.0,-999.0,100,-99.99,,,-99.99,,2013-06-01 01:32:00,
2013-05-31 19:42:00,28.0,28.0,-100.00,North,10,13.0,-999.0,100,-99.99,,,-99.99,,2013-06-01 01:42:00,
2013-05-31 19:52:00,28.0,28.0,-100.00,North,10,13.0,-999.0,100,-99.99,,,-99.99,,2013-06-01 01:52:00,
2013-05-31 20:32:00,29.0,29.0,-100.00,NNE,20,10.0,-999.0,100,-99.99,,,-99.99,,2013-06-01 02:32:00,
2013-05-31 20:42:00,29.0,29.0,-100.00,NNE,20,10.0,-999.0,100,-99.99,,,-99.99,,2013-06-01 02:42:00,
2013-05-31 20:51:00,29.0,29.0,-100.00,NNE,20,10.0,-999.0,100,-99.99,,,-99.99,,2013-06-01 02:51:00,
2013-05-31 21:33:00,30.0,30.0,-100.00,North,10,7.0,-999.0,100,-99.99,,,-99.99,,2013-06-01 03:33:00,
2013-05-31 21:43:00,30.0,30.0,-100.00,North,10,7.0,-999.0,100,-99.99,,,-99.99,,2013-06-01 03:43:00,
2013-05-31 21:53:00,30.0,30.0,-100.00,North,10,7.0,-999.0,100,-99.99,,,-99.99,,2013-06-01 03:53:00,
2013-05-31 22:33:00,32.0,32.0,-100.00,NNW,330,5.0,-999.0,100,-99.99,,,-99.99,,2013-06-01 04:33:00,
2013-05-31 22:42:00,32.0,32.0,-100.00,NNW,330,5.0,-999.0,100,-99.99,,,-99.99,,2013-06-01 04:42:00,
2013-05-31 22:53:00,32.0,32.0,-100.00,NNW,330,5.0,-999.0,100,-99.99,,,-99.99,,2013-06-01 04:53:00,
2013-05-31 23:32:00,32.0,32.0,-100.00,NW,310,5.0,-999.0,100,-99.99,,,-99.99,,2013-06-01 05:32:00,
2013-05-31 23:42:00,32.0,32.0,-100.00,NW,310,5.0,-999.0,100,-99.99,,,-99.99,,2013-06-01 05:42:00,
2013-05-31 23:52:00,32.0,32.0,-100.00,NW,310,5.0,-999.0,100,-99.99,,,-99.99,,2013-06-01 05:52:00,